Regional Weather Roundup
Issued by NWS Cleveland, OH

Home | Current Version | Previous Version | Text Only | Print | Product List | Glossary Off
Versions: 1 2 3 4 5 6 7 8 9 10 11 12 13 14 15 16 17 18 19 20 21 22 23 24 25 26 27 28 29 30 31 32 33 34 35 36 37 38 39 40 41 42 43 44 45 46 47 48 49 50

000
ASUS41 KCLE 212010
RWRCLE
OHIO REGIONAL WEATHER ROUNDUP
NATIONAL WEATHER SERVICE CLEVELAND, OH
300 PM EST SUN DEC 21 2014

NOTE: "FAIR" INDICATES FEW OR NO CLOUDS BELOW 12,000 FEET WITH NO
SIGNIFICANT WEATHER AND/OR OBSTRUCTIONS TO VISIBILITY.

OHZ001>008-015>018-024>027-034-035-043-044-212100-
   NORTHWEST OHIO

CITY           SKY/WX    TMP DP  RH WIND       PRES   REMARKS
DEFIANCE       CLOUDY    35  26  69 S5        30.22F
FINDLAY        MOSUNNY   35  25  66 SE5       30.21S
TOLEDO EXPRESS CLOUDY    33  26  75 CALM      30.22F
TOLEDO EXEC    PTSUNNY   35  24  64 S5        30.23F
LIMA           SUNNY     39  25  57 SE9       30.19F
$$

OHZ009>014-019>023-028>033-038-089-212100-
   NORTHEAST OHIO

CITY           SKY/WX    TMP DP  RH WIND       PRES   REMARKS
CLE-HOPKINS    CLOUDY    31  23  72 SE8       30.27F WCI  23
CLE-LAKEFRONT  CLOUDY    33  21  61 SE7       30.25F WCI  27
CUY CO. ARPT   CLOUDY    34  23  64 S9        30.26F WCI  26
LORAIN-ELYRIA  MOSUNNY   32  22  66 SE9       30.24F WCI  24
ASHTABULA      CLOUDY    31  23  72 S5        30.26F WCI  26
AKRON-CANTON   CLOUDY    31  21  66 SE3       30.22F
WOOSTER        CLOUDY    30  22  72 SE8       30.23F WCI  22
MANSFIELD      SUNNY     35  22  58 SE5       30.20F
YOUNGSTOWN     CLOUDY    31  21  66 SE3       30.24F
$$

OHZ042-051>053-060>062-070>072-077>081-212100-
  SOUTHWEST OHIO

CITY           SKY/WX    TMP DP  RH WIND       PRES   REMARKS
CINC-COVINGTON PTSUNNY   38  25  59 E7        30.18F
CINC-LUNKEN    MOSUNNY   36  27  69 S5        30.22F
HAMILTON       MOSUNNY   38  26  62 VRB5      30.21F
DAYTON         PTSUNNY   37  25  61 SE8       30.20F
WRIGHT-PAT AFB PTSUNNY   37  26  63 SE8       30.20F
DAYTON GENERAL MOSUNNY   37  26  64 SE8       30.19F
WILMINGTON     SUNNY     35  25  66 SE6       30.19F
$$

OHZ036-037-039>041-045>050-054>059-063>069-073>076-082>088-212100-
  CENTRAL AND SOUTHEAST OHIO

CITY           SKY/WX    TMP DP  RH WIND       PRES   REMARKS
COLUMBUS       PTSUNNY   36  22  56 E7        30.21F
OSU AIRPORT    SUNNY     36  22  56 SE5       30.20F
BOLTON FIELD   SUNNY     36  25  64 E6        30.21F
RICKENBACK AFB SUNNY     36  24  62 E3        30.21F
NEWARK         SUNNY     36  23  59 S3        30.21F
MARION         SUNNY     36  22  56 S6        30.21F
LANCASTER      SUNNY     52  24  33 E3        30.21F
ZANESVILLE     CLOUDY    33  23  66 N3        30.23S
NEW PHILLY     CLOUDY    33  22  63 E3        30.24F
$$



USA.gov is the U.S. government's official web portal to all federal, state and local government web resources and services.